BTI36V EETN-EVRA

Flight info

Callsign BTI36V
Flight time 0h 34m
Altitude 28000
Route ORTAX DCT LUTAL
Aircraft A319/M-SDE3FGHIRWY/LB1

Departure

Time 2026-05-05 19:16
Airport Lennart Meri Tallinn Airport (EETN)

Arrival

Time 2026-05-05 19:50
Airport Riga International Airport (EVRA)
Time Latitude Longitude Altitude Speed Heading
2026-05-05 18:51 59.41690 24.80122 162 ft 0 kts 181°
2026-05-05 19:07 59.41704 24.80123 162 ft 4 kts 183°
2026-05-05 19:08 59.41731 24.80125 162 ft 4 kts 174°
2026-05-05 19:08 59.41749 24.80115 162 ft 4 kts 102°
2026-05-05 19:08 59.41750 24.80107 162 ft 0 kts 91°
2026-05-05 19:10 59.41750 24.80117 162 ft 2 kts 91°
2026-05-05 19:10 59.41750 24.80159 162 ft 4 kts 92°
2026-05-05 19:11 59.41748 24.80237 162 ft 8 kts 92°
2026-05-05 19:11 59.41740 24.80368 162 ft 10 kts 101°
2026-05-05 19:11 59.41709 24.80492 162 ft 11 kts 147°
2026-05-05 19:11 59.41632 24.80511 162 ft 12 kts 181°
2026-05-05 19:12 59.41543 24.80513 162 ft 13 kts 171°
2026-05-05 19:12 59.41506 24.80660 162 ft 14 kts 90°
2026-05-05 19:12 59.41506 24.80872 162 ft 20 kts 90°
2026-05-05 19:12 59.41505 24.81206 162 ft 28 kts 90°
2026-05-05 19:13 59.41504 24.81592 162 ft 28 kts 90°
2026-05-05 19:13 59.41503 24.81986 162 ft 29 kts 90°
2026-05-05 19:13 59.41502 24.82376 162 ft 29 kts 90°
2026-05-05 19:13 59.41501 24.82769 162 ft 29 kts 90°
2026-05-05 19:14 59.41500 24.83173 162 ft 29 kts 90°
2026-05-05 19:14 59.41500 24.83552 162 ft 28 kts 90°
2026-05-05 19:14 59.41499 24.83940 162 ft 29 kts 90°
2026-05-05 19:14 59.41497 24.84332 162 ft 29 kts 90°
2026-05-05 19:15 59.41496 24.84729 162 ft 27 kts 90°
2026-05-05 19:15 59.41479 24.84989 162 ft 16 kts 133°
2026-05-05 19:15 59.41372 24.85012 162 ft 16 kts 181°
2026-05-05 19:15 59.41320 24.84898 162 ft 16 kts 270°
2026-05-05 19:16 59.41322 24.84333 161 ft 78 kts 271°
2026-05-05 19:16 59.41326 24.82788 198 ft 143 kts 270°
2026-05-05 19:16 59.41337 24.80825 894 ft 142 kts 270°
2026-05-05 19:16 59.41314 24.78869 1658 ft 149 kts 265°
2026-05-05 19:17 59.40732 24.76984 2082 ft 183 kts 224°
2026-05-05 19:17 59.39485 24.75787 2472 ft 215 kts 207°
2026-05-05 19:17 59.38016 24.74617 3038 ft 240 kts 206°
2026-05-05 19:17 59.36390 24.73318 3677 ft 265 kts 206°
2026-05-05 19:18 59.34598 24.71883 4293 ft 290 kts 205°
2026-05-05 19:18 59.32673 24.70348 5126 ft 304 kts 205°
2026-05-05 19:18 59.30699 24.68778 6230 ft 307 kts 206°
2026-05-05 19:18 59.28727 24.67272 7327 ft 309 kts 201°
2026-05-05 19:19 59.26558 24.66866 8436 ft 317 kts 182°
2026-05-05 19:19 59.24324 24.67242 9241 ft 331 kts 180°
2026-05-05 19:19 59.21955 24.67724 9583 ft 353 kts 180°
2026-05-05 19:19 59.19475 24.68242 10235 ft 362 kts 180°
2026-05-05 19:20 59.16952 24.68795 10981 ft 367 kts 180°
2026-05-05 19:20 59.14402 24.69381 11744 ft 371 kts 180°
2026-05-05 19:20 59.11823 24.70001 12506 ft 376 kts 180°
2026-05-05 19:20 59.09209 24.70653 13259 ft 380 kts 180°
2026-05-05 19:21 59.06601 24.71325 13951 ft 385 kts 180°
2026-05-05 19:21 59.03941 24.71494 14584 ft 377 kts 194°
2026-05-05 19:21 59.01440 24.70244 15232 ft 370 kts 207°
2026-05-05 19:21 58.99018 24.68494 15881 ft 372 kts 207°
2026-05-05 19:22 58.96573 24.66715 16471 ft 376 kts 207°
2026-05-05 19:22 58.94112 24.64918 17039 ft 380 kts 207°
2026-05-05 19:22 58.91659 24.63126 17622 ft 383 kts 207°
2026-05-05 19:22 58.89154 24.61301 18202 ft 386 kts 207°
2026-05-05 19:23 58.86625 24.59462 18706 ft 388 kts 207°
2026-05-05 19:23 58.84088 24.57631 19210 ft 391 kts 206°
2026-05-05 19:23 58.81379 24.56471 19679 ft 405 kts 195°
2026-05-05 19:23 58.78565 24.55818 20157 ft 408 kts 194°
2026-05-05 19:24 58.75733 24.55191 20635 ft 410 kts 194°
2026-05-05 19:24 58.72916 24.54582 21079 ft 413 kts 194°
2026-05-05 19:24 58.70049 24.53970 21523 ft 415 kts 194°
2026-05-05 19:24 58.67165 24.53358 21919 ft 418 kts 194°
2026-05-05 19:25 58.64257 24.52738 22345 ft 420 kts 194°
2026-05-05 19:25 58.61373 24.52114 22620 ft 425 kts 194°
2026-05-05 19:25 58.58395 24.51456 22730 ft 432 kts 194°
2026-05-05 19:25 58.55397 24.50794 23033 ft 435 kts 194°
2026-05-05 19:26 58.52376 24.50133 23379 ft 437 kts 194°
2026-05-05 19:26 58.49340 24.49474 23659 ft 439 kts 194°
2026-05-05 19:26 58.46297 24.48821 23923 ft 441 kts 193°
2026-05-05 19:26 58.43241 24.48168 24180 ft 443 kts 193°
2026-05-05 19:27 58.40173 24.47507 24441 ft 445 kts 193°
2026-05-05 19:27 58.37124 24.46849 24666 ft 446 kts 193°
2026-05-05 19:27 58.34022 24.46183 24915 ft 448 kts 193°
2026-05-05 19:27 58.30920 24.45520 25171 ft 450 kts 193°
2026-05-05 19:28 58.27809 24.44857 25524 ft 448 kts 193°
2026-05-05 19:28 58.24776 24.44237 26664 ft 429 kts 193°
2026-05-05 19:28 58.21884 24.43662 27401 ft 408 kts 193°
2026-05-05 19:28 58.19075 24.43083 27704 ft 402 kts 194°
2026-05-05 19:29 58.16325 24.42483 27858 ft 400 kts 194°
2026-05-05 19:29 58.13582 24.41877 27719 ft 394 kts 194°
2026-05-05 19:29 58.10864 24.41280 27452 ft 392 kts 194°
2026-05-05 19:29 58.08149 24.40693 27140 ft 392 kts 194°
2026-05-05 19:30 58.05443 24.40120 26780 ft 389 kts 194°
2026-05-05 19:30 58.02800 24.39570 26215 ft 383 kts 194°
2026-05-05 19:30 58.00156 24.39024 25657 ft 378 kts 194°
2026-05-05 19:30 57.97552 24.38484 25095 ft 374 kts 194°
2026-05-05 19:31 57.94973 24.37942 24564 ft 370 kts 194°
2026-05-05 19:31 57.92459 24.37410 24062 ft 366 kts 194°
2026-05-05 19:31 57.89937 24.36874 23515 ft 364 kts 195°
2026-05-05 19:31 57.87427 24.36344 22970 ft 361 kts 194°
2026-05-05 19:32 57.84940 24.35827 22491 ft 357 kts 194°
2026-05-05 19:32 57.82483 24.35322 22045 ft 352 kts 194°
2026-05-05 19:32 57.80062 24.34824 21591 ft 347 kts 194°
2026-05-05 19:32 57.77697 24.34341 21198 ft 342 kts 194°
2026-05-05 19:33 57.75338 24.33856 20785 ft 337 kts 194°
2026-05-05 19:33 57.73019 24.33374 20368 ft 333 kts 194°
2026-05-05 19:33 57.70720 24.32890 19958 ft 331 kts 194°
2026-05-05 19:33 57.68465 24.32415 19545 ft 329 kts 194°
2026-05-05 19:34 57.66187 24.31937 19121 ft 327 kts 194°
2026-05-05 19:34 57.63933 24.31470 18701 ft 326 kts 194°
2026-05-05 19:34 57.61671 24.31005 18263 ft 324 kts 194°
2026-05-05 19:35 57.57222 24.30104 17342 ft 321 kts 194°
2026-05-05 19:35 57.55005 24.29651 16898 ft 319 kts 194°
2026-05-05 19:35 57.52789 24.29194 16425 ft 318 kts 194°
2026-05-05 19:35 57.50593 24.28744 16007 ft 317 kts 194°
2026-05-05 19:36 57.48398 24.28293 15574 ft 316 kts 193°
2026-05-05 19:36 57.46226 24.27844 15141 ft 315 kts 193°
2026-05-05 19:36 57.44045 24.27395 14691 ft 314 kts 193°
2026-05-05 19:36 57.41873 24.26952 14255 ft 314 kts 193°
2026-05-05 19:37 57.39704 24.26510 13810 ft 313 kts 193°
2026-05-05 19:37 57.37539 24.26070 13329 ft 312 kts 193°
2026-05-05 19:37 57.35414 24.25638 12881 ft 310 kts 193°
2026-05-05 19:37 57.33276 24.25202 12424 ft 308 kts 193°
2026-05-05 19:38 57.31151 24.24771 11969 ft 306 kts 192°
2026-05-05 19:38 57.29035 24.24346 11511 ft 304 kts 192°
2026-05-05 19:38 57.27643 24.24065 11198 ft 303 kts 192°
2026-05-05 19:38 57.24867 24.23501 10585 ft 301 kts 192°
2026-05-05 19:39 57.23483 24.23221 10258 ft 300 kts 192°
2026-05-05 19:39 57.21402 24.22803 9746 ft 301 kts 191°
2026-05-05 19:39 57.19338 24.22392 9291 ft 297 kts 191°
2026-05-05 19:39 57.17282 24.21984 8822 ft 295 kts 191°
2026-05-05 19:40 57.14594 24.21446 8199 ft 291 kts 191°
2026-05-05 19:40 57.13232 24.21175 7882 ft 290 kts 191°
2026-05-05 19:40 57.11255 24.20781 7416 ft 288 kts 191°
2026-05-05 19:40 57.09271 24.20382 6984 ft 287 kts 191°
2026-05-05 19:41 57.07210 24.19957 6888 ft 302 kts 190°
2026-05-05 19:41 57.05104 24.19526 6898 ft 306 kts 190°
2026-05-05 19:41 57.02987 24.19065 6899 ft 306 kts 191°
2026-05-05 19:41 57.00874 24.18582 6898 ft 306 kts 191°
2026-05-05 19:42 56.98761 24.18094 6886 ft 306 kts 191°
2026-05-05 19:42 56.96642 24.17609 6757 ft 306 kts 191°
2026-05-05 19:42 56.94530 24.17129 6641 ft 306 kts 191°
2026-05-05 19:42 56.92414 24.16650 6512 ft 305 kts 190°
2026-05-05 19:43 56.90338 24.16181 6389 ft 303 kts 190°
2026-05-05 19:43 56.88241 24.15710 6263 ft 303 kts 190°
2026-05-05 19:43 56.86149 24.15241 6130 ft 302 kts 190°
2026-05-05 19:43 56.84064 24.14770 6002 ft 302 kts 190°
2026-05-05 19:44 56.81977 24.14298 5861 ft 302 kts 190°
2026-05-05 19:44 56.79924 24.13824 5557 ft 298 kts 190°
2026-05-05 19:44 56.77917 24.13386 5404 ft 276 kts 190°
2026-05-05 19:44 56.76169 24.12606 5272 ft 250 kts 210°
2026-05-05 19:45 56.74962 24.10601 5142 ft 227 kts 241°
2026-05-05 19:45 56.74552 24.07914 4663 ft 225 kts 269°
2026-05-05 19:45 56.74734 24.05010 3944 ft 234 kts 278°
2026-05-05 19:45 56.75124 24.02119 3330 ft 237 kts 296°
2026-05-05 19:46 56.76215 23.99900 2859 ft 235 kts 326°
2026-05-05 19:46 56.77559 23.98392 2709 ft 217 kts 329°
2026-05-05 19:46 56.78793 23.97077 2500 ft 203 kts 329°
2026-05-05 19:46 56.79978 23.95847 2229 ft 189 kts 334°
2026-05-05 19:47 56.81204 23.95321 1967 ft 176 kts 357°
2026-05-05 19:47 56.82390 23.95486 1740 ft 164 kts
2026-05-05 19:47 56.83463 23.95662 1518 ft 144 kts
2026-05-05 19:47 56.84400 23.95824 1313 ft 130 kts
2026-05-05 19:48 56.85280 23.95953 1103 ft 125 kts
2026-05-05 19:48 56.86140 23.96081 995 ft 123 kts
2026-05-05 19:48 56.86992 23.96223 828 ft 123 kts
2026-05-05 19:48 56.87841 23.96377 629 ft 122 kts
2026-05-05 19:49 56.88687 23.96500 476 ft 121 kts
2026-05-05 19:49 56.89526 23.96648 302 ft 121 kts
2026-05-05 19:49 56.90358 23.96780 140 ft 121 kts
2026-05-05 19:49 56.91182 23.96915 47 ft 111 kts
2026-05-05 19:50 56.91770 23.97020 43 ft 66 kts
2026-05-05 19:50 56.92182 23.97088 45 ft 50 kts
2026-05-05 19:50 56.92399 23.97185 44 ft 25 kts 25°
2026-05-05 19:50 56.92536 23.97342 43 ft 19 kts 36°
2026-05-05 19:51 56.92615 23.97457 43 ft 10 kts 49°
2026-05-05 19:51 56.92593 23.97538 44 ft 9 kts 165°
2026-05-05 19:51 56.92531 23.97536 44 ft 10 kts 186°
2026-05-05 19:51 56.92459 23.97524 42 ft 11 kts 185°
2026-05-05 19:52 56.92420 23.97517 44 ft 2 kts 185°
2026-05-05 19:52 56.92405 23.97515 42 ft 0 kts 185°
2026-05-05 19:52 56.92391 23.97513 44 ft 5 kts 183°
2026-05-05 19:53 56.92355 23.97583 44 ft 10 kts 103°
2026-05-05 19:53 56.92348 23.97711 44 ft 7 kts 95°
2026-05-05 19:53 56.92336 23.97759 41 ft 3 kts 163°
2026-05-05 19:53 56.92309 23.97751 44 ft 5 kts 183°
2026-05-05 19:54 56.92287 23.97748 43 ft 0 kts 185°